Flag for Canada Weather past 2 weeks in Churchill, Manitoba, Canada

Now
57 °F

Scattered clouds.


Feels Like: 54 °F
Forecast: 52 / 57 °F
Wind: 16 mph from Northwest

Location: Churchill

Current Time: Jul 31, 2015 at 11:30:43 AM

Latest Report: Jul 31, 2015 at 11:00 AM


Visibility: 15 mi

Pressure: 29.67 "Hg

Humidity: 82%

Dew point: 52 °F

Location of ChurchillLocation

Historic Weather in Churchill — Graph

°F

Churchill temperature yesterday

Maximum temperature yesterday: 57 °F (at 2:00 PM)
Minimum temperature yesterday: 48 °F (at 12:00 AM)
Average temperature yesterday: 52 °F

Past Weeks' High & Low Weather Summary

 TemperatureHumidityPressure
High77 °F (Jul 26, 3:00 PM)100% (Jul 18, 10:00 AM)29.91 "Hg (Jul 18, 10:00 AM)
Low45 °F (Jul 18, 10:00 AM)47% (Jul 16, 3:00 PM)29.47 "Hg (Jul 19, 1:00 AM)
Average54 °F86%29.70 "Hg
* Reported Jul 16 10:00 AM — Jul 31 10:00 AM, Churchill, Weather by CustomWeather, © 2015

Note: Actual official high and low records may vary slightly from our data, if they occured in-between our weather recording intervals... More about our weather records

Advertising

Churchill weather history for previous 24 hours

 ConditionsComfort  
Time TempWeatherWind HumidityBarometerVisibility
10:00 AM
Fri, Jul 31
57 °FBroken clouds.17 mph77%29.67 "Hg15 mi
9:00 AM55 °FPartly sunny.18 mph82%29.68 "Hg15 mi
8:00 AM55 °FBroken clouds.18 mph82%29.68 "Hg15 mi
7:00 AM54 °FOvercast.16 mph88%29.67 "Hg15 mi
6:00 AM54 °FOvercast.16 mph88%29.67 "Hg15 mi
5:00 AM54 °FOvercast.15 mph88%29.67 "Hg15 mi
4:00 AM54 °FLow clouds.15 mph88%29.67 "Hg15 mi
3:00 AM54 °FLow clouds.12 mph94%29.67 "Hg15 mi
2:00 AM54 °FPassing clouds.14 mph94%29.67 "Hg15 mi
1:00 AM54 °FOvercast.12 mph88%29.68 "Hg15 mi
12:00 AM52 °FPassing clouds.10 mph94%29.68 "Hg15 mi
11:00 PM
Thu, Jul 30
52 °FPassing clouds.12 mph94%29.69 "Hg15 mi
10:00 PM54 °FBroken clouds.14 mph88%29.68 "Hg15 mi
9:00 PM54 °FBroken clouds.12 mph88%29.68 "Hg15 mi
8:00 PM54 °FBroken clouds.9 mph88%29.68 "Hg15 mi
7:00 PM55 °FBroken clouds.10 mph82%29.68 "Hg15 mi
6:00 PM55 °FPartly sunny.13 mph82%29.68 "Hg15 mi
5:00 PM55 °FBroken clouds.12 mph88%29.68 "Hg15 mi
4:00 PM55 °FPartly sunny.15 mph82%29.69 "Hg15 mi
3:00 PM57 °FPartly sunny.20 mph82%29.68 "Hg15 mi
2:00 PM57 °FBroken clouds.18 mph82%29.67 "Hg15 mi
1:00 PM55 °FPartly sunny.20 mph88%29.67 "Hg15 mi
12:00 PM54 °FBroken clouds.20 mph94%29.67 "Hg15 mi
11:00 AM52 °FMostly cloudy.20 mph100%29.66 "Hg10 mi
Weather by CustomWeather, © 2015

See weather overviewHow to use our weather pages